Weather History for Springfield, CO

Change the Weather History Date:

Tuesday, May 12, 2009

  Actual Average Record
Temperature  
Mean Temperature 70 °F -  
Max Temperature 87 °F 75 °F 90 °F (2008)
Min Temperature 53 °F 45 °F 32 °F (2002)
Degree Days  
Heating Degree Days 0 6  
Month to date heating degree days 101 91  
Since 1 July heating degree days 4668 5190  
Cooling Degree Days 5 1  
Month to date cooling degree days 9 10  
Year to date cooling degree days 16 14  
Growing Degree Days 20 (Base 50)    
Moisture  
Dew Point 43 °F    
Average Humidity 55    
Maximum Humidity 93    
Minimum Humidity 17    
Precipitation  
Precipitation 0.00 in 0.06 in 0.06 in (2012)
Month to date precipitation 0.13 0.69  
Year to date precipitation 3.03 3.90  
Sea Level Pressure  
Sea Level Pressure 29.57 in    
Wind  
Wind Speed 14 mph (SW)    
Max Wind Speed 36 mph    
Max Gust Speed 45 mph    
T = Trace of Precipitation, MM = Missing Value Source: NWS Daily Summary

Daily Weather History Graph

Daily Weather History Graph

Search for Another Location

Airport:

Trip Planner

Search our weather history database for the weather conditions in past years. The results will help you decide how hot, cold, wet, or windy it might be!

Date:

Astronomy

May. 12, 2009 Rise Set
Actual Time 5:44 AM MDT 7:49 PM MDT
Civil Twilight 5:15 AM MDT 8:18 PM MDT
Nautical Twilight 4:39 AM MDT 8:54 PM MDT
Astronomical Twilight 4:01 AM MDT 9:32 PM MDT
Moon 11:26 PM MDT (5/12) 8:02 AM MDT (5/12)
Length of Visible Light 15h 03m
Length of Day
14h 05m
Waning Gibbous, 88% of the Moon is Illuminated
May 12
Waning Gibbous
May 17
Last Quarter
May 24
New
May 30
First Quarter
Jun 7
Full

Hourly Weather History & Observations

Time (MDT) Temp. Dew Point Humidity Pressure Visibility Wind Dir Wind Speed Gust Speed Precip Events Conditions
12:56 AM 53.1 °F 51.1 °F 93% 29.79 in - SSW 27.6 mph 33.4 mph N/A   Unknown
1:56 AM 54.0 °F 51.1 °F 90% 29.74 in - SSW 29.9 mph 40.3 mph N/A   Unknown
2:56 AM 55.0 °F 52.0 °F 89% 29.73 in - SSW 26.5 mph 38.0 mph N/A   Unknown
3:56 AM 55.0 °F 52.0 °F 89% 29.71 in - SW 25.3 mph 34.5 mph N/A   Unknown
4:56 AM 55.9 °F 51.1 °F 84% 29.69 in - SW 24.2 mph 32.2 mph N/A   Unknown
5:56 AM 55.9 °F 52.0 °F 87% 29.68 in - SW 21.9 mph - N/A   Unknown
6:56 AM 60.1 °F 53.1 °F 78% 29.68 in - SW 20.7 mph 27.6 mph N/A   Unknown
7:56 AM 66.0 °F 51.1 °F 59% 29.66 in - SW 21.9 mph 32.2 mph N/A   Unknown
8:56 AM 73.0 °F 46.9 °F 39% 29.65 in - West 8.1 mph 18.4 mph N/A   Unknown
9:56 AM 73.9 °F 48.9 °F 41% 29.65 in - North 10.4 mph - N/A   Unknown
10:56 AM 78.1 °F 50.0 °F 37% 29.63 in - NE 10.4 mph - N/A   Unknown
11:56 AM 79.0 °F 48.9 °F 35% 29.62 in - NNE 6.9 mph - N/A   Unknown
12:56 PM 84.0 °F 43.0 °F 24% 29.57 in - Variable 6.9 mph - N/A   Unknown
1:56 PM 86.0 °F 44.1 °F 23% 29.54 in - NE 9.2 mph - N/A   Unknown
2:56 PM 86.0 °F 43.0 °F 22% 29.51 in - ESE 11.5 mph - N/A   Unknown
3:56 PM 82.9 °F 42.1 °F 24% 29.49 in - East 12.7 mph - N/A   Unknown
4:56 PM 82.9 °F 39.0 °F 21% 29.44 in - East 9.2 mph - N/A   Unknown
5:56 PM 78.1 °F 45.0 °F 31% 29.44 in - East 10.4 mph - N/A   Unknown
6:56 PM 75.0 °F 45.0 °F 34% 29.41 in - Calm Calm - N/A   Unknown
7:56 PM 73.9 °F 35.1 °F 24% 29.39 in - West 8.1 mph - N/A   Unknown
8:56 PM 68.0 °F 21.0 °F 17% 29.41 in - West 9.2 mph - N/A   Unknown
9:56 PM 59.0 °F 23.0 °F 25% 29.45 in - WNW 10.4 mph - N/A   Unknown
10:56 PM 62.1 °F 21.0 °F 21% 29.44 in - West 9.2 mph - N/A   Unknown
11:56 PM 59.0 °F 21.0 °F 23% 29.45 in - WNW 11.5 mph - N/A   Unknown